Location: IoMAS Observatory
(54.1780°N, 4.6265°W)
Time: 14:39:52
(UTC+01:00)

ISS - Visible Passes

Search period start: 18 March 2019 00:00
Search period end: 28 March 2019 00:00
Orbit: 406 x 411 km, 51.6° (Epoch: 18 March)

Date Brightness Start Highest point End Pass type
(mag) Time Alt. Az. Time Alt. Az. Time Alt. Az.
22 Mar -1.7 21:12:22 10° S 21:13:30 15° S 21:13:30 15° S visible
23 Mar -1.6 20:22:29 10° SSE 20:23:47 12° SE 20:25:07 10° ESE visible
23 Mar -1.8 21:56:38 10° SW 21:57:55 20° SW 21:57:55 20° SW visible
24 Mar -2.7 21:05:53 10° SW 21:08:44 27° SSE 21:09:21 25° SE visible
24 Mar -1.0 22:41:43 10° WSW 22:42:06 13° WSW 22:42:06 13° WSW visible
25 Mar -2.2 20:15:18 10° SSW 20:17:49 20° SSE 20:20:20 10° E visible
25 Mar -3.2 21:50:43 10° WSW 21:53:23 42° SSW 21:53:23 42° SSW visible
26 Mar -3.2 20:59:47 10° SW 21:02:55 39° SSE 21:04:32 22° ESE visible
26 Mar -1.6 22:35:59 10° W 22:37:17 21° WSW 22:37:17 21° WSW visible
27 Mar -3.7 21:44:55 10° WSW 21:48:10 55° S 21:48:20 54° SSE visible
